When you browse on this site, cookies collect data to enhance your experience and personalize the content and advertising you see.
Visit our Privacy Policy to learn more. By continuing to use the site, you agree to this use of cookies and data.
  • în România
  • Lista ţărilor
  • Pe 7 zile
  • Temperatura apei
  • Meteo pe hartă
  • Widget-uri
  • user-avatar
    Intrare

    Meteo pe oră la Yevlakh

    Astăzi, 31 Mai, Duminică

    Timp Temperatura Precipitaţii Vânt Presiune Umiditate
    00:00 +23°C° 0 mm 4 m/s 758 mmHg 56%
    01:00 +22°C° 0 mm 3 m/s 759 mmHg 59%
    02:00 +21°C° 0 mm 2 m/s 759 mmHg 62%
    03:00 +21°C° 0 mm 2 m/s 759 mmHg 65%
    04:00 +21°C° 0 mm 2 m/s 759 mmHg 63%
    05:00 +23°C° 0 mm 1 m/s 760 mmHg 61%
    06:00 +23°C° 0 mm 1 m/s 760 mmHg 60%
    07:00 +25°C° 0 mm 2 m/s 760 mmHg 55%
    08:00 +26°C° 0 mm 3 m/s 760 mmHg 51%
    09:00 +28°C° 0 mm 4 m/s 760 mmHg 45%
    10:00 +29°C° 0 mm 4 m/s 759 mmHg 42%
    11:00 +30°C° 0 mm 3 m/s 759 mmHg 39%
    12:00 +31°C° 0 mm 3 m/s 759 mmHg 37%
    13:00 +33°C° 0 mm 3 m/s 759 mmHg 36%
    14:00 +33°C° 0 mm 3 m/s 758 mmHg 35%
    15:00 +34°C° 0 mm 2 m/s 758 mmHg 34%
    16:00 +34°C° 0 mm 2 m/s 758 mmHg 34%
    17:00 +32°C° 0 mm 2 m/s 758 mmHg 35%
    18:00 +32°C° 0 mm 2 m/s 758 mmHg 35%
    19:00 +30°C° 0 mm 3 m/s 758 mmHg 40%
    20:00 +27°C° 0 mm 4 m/s 759 mmHg 45%
    21:00 +25°C° 0 mm 5 m/s 759 mmHg 50%
    22:00 +23°C° 0 mm 5 m/s 759 mmHg 52%
    23:00 +22°C° 0 mm 5 m/s 759 mmHg 53%

    Mâine, 1 Iunie, Luni

    Timp Temperatura Precipitaţii Vânt Presiune Umiditate
    00:00 +21°C° 0 mm 4 m/s 759 mmHg 55%
    01:00 +21°C° 0 mm 4 m/s 759 mmHg 56%
    02:00 +20°C° 0 mm 3 m/s 759 mmHg 58%
    03:00 +20°C° 0 mm 3 m/s 759 mmHg 60%
    04:00 +20°C° 0 mm 3 m/s 759 mmHg 58%
    05:00 +21°C° 0 mm 3 m/s 759 mmHg 56%
    06:00 +21°C° 0 mm 3 m/s 759 mmHg 55%
    07:00 +24°C° 0 mm 3 m/s 758 mmHg 49%
    08:00 +26°C° 0 mm 3 m/s 758 mmHg 44%
    09:00 +28°C° 0 mm 4 m/s 758 mmHg 38%
    10:00 +29°C° 0 mm 4 m/s 758 mmHg 36%
    11:00 +31°C° 0 mm 3 m/s 757 mmHg 33%
    12:00 +33°C° 0 mm 3 m/s 757 mmHg 31%
    13:00 +34°C° 0 mm 3 m/s 756 mmHg 30%
    14:00 +34°C° 0 mm 3 m/s 755 mmHg 28%
    15:00 +35°C° 0 mm 2 m/s 755 mmHg 27%
    16:00 +35°C° 0 mm 2 m/s 755 mmHg 28%
    17:00 +34°C° 0 mm 2 m/s 755 mmHg 29%
    18:00 +34°C° 0 mm 2 m/s 755 mmHg 29%
    19:00 +31°C° 0 mm 2 m/s 755 mmHg 35%
    20:00 +28°C° 0 mm 3 m/s 755 mmHg 40%
    21:00 +26°C° 0 mm 3 m/s 755 mmHg 46%
    22:00 +25°C° 0 mm 3 m/s 755 mmHg 48%
    23:00 +24°C° 0 mm 3 m/s 755 mmHg 50%

    Poimâine, 2 Iunie, Marţi

    Timp Temperatura Precipitaţii Vânt Presiune Umiditate
    00:00 +22°C° 0 mm 3 m/s 755 mmHg 53%
    01:00 +21°C° 0 mm 2 m/s 755 mmHg 54%
    02:00 +22°C° 0 mm 1 m/s 755 mmHg 56%
    03:00 +21°C° 0 mm 1 m/s 755 mmHg 58%
    04:00 +22°C° 0 mm 1 m/s 754 mmHg 55%
    05:00 +23°C° 0 mm 1 m/s 754 mmHg 53%
    06:00 +22°C° 0 mm 0 m/s 754 mmHg 51%
    07:00 +26°C° 0 mm 1 m/s 754 mmHg 46%
    08:00 +28°C° 0 mm 2 m/s 754 mmHg 42%
    09:00 +30°C° 0 mm 2 m/s 754 mmHg 37%
    10:00 +32°C° 0 mm 2 m/s 754 mmHg 34%
    11:00 +33°C° 0 mm 1 m/s 753 mmHg 31%
    12:00 +35°C° 0 mm 1 m/s 753 mmHg 27%
    13:00 +36°C° 0 mm 1 m/s 753 mmHg 25%
    14:00 +38°C° 0 mm 2 m/s 752 mmHg 22%
    15:00 +40°C° 0 mm 3 m/s 752 mmHg 20%
    16:00 +37°C° 0 mm 5 m/s 752 mmHg 26%
    17:00 +35°C° 0 mm 8 m/s 752 mmHg 32%
    18:00 +32°C° 0 mm 10 m/s 752 mmHg 38%
    19:00 +29°C° 0.1 mm 8 m/s 753 mmHg 46%
    20:00 +27°C° 0.1 mm 5 m/s 753 mmHg 53%
    21:00 +25°C° 0.1 mm 3 m/s 754 mmHg 60%
    22:00 +25°C° 0 mm 2 m/s 753 mmHg 61%
    23:00 +25°C° 0 mm 1 m/s 753 mmHg 61%

    3 Iunie, Miercuri

    Timp Temperatura Precipitaţii Vânt Presiune Umiditate
    00:00 +24°C° 0 mm 1 m/s 753 mmHg 62%
    01:00 +24°C° 0.1 mm 1 m/s 753 mmHg 65%
    02:00 +23°C° 0.1 mm 2 m/s 752 mmHg 68%
    03:00 +23°C° 0.1 mm 2 m/s 752 mmHg 70%
    04:00 +23°C° 0 mm 2 m/s 753 mmHg 68%
    05:00 +24°C° 0 mm 3 m/s 753 mmHg 66%
    06:00 +24°C° 0 mm 3 m/s 753 mmHg 63%
    07:00 +26°C° 0 mm 3 m/s 753 mmHg 56%
    08:00 +28°C° 0 mm 3 m/s 753 mmHg 49%
    09:00 +30°C° 0 mm 3 m/s 752 mmHg 42%
    10:00 +33°C° 0 mm 4 m/s 752 mmHg 37%
    11:00 +35°C° 0 mm 5 m/s 752 mmHg 32%
    12:00 +37°C° 0 mm 5 m/s 752 mmHg 27%
    13:00 +39°C° 0 mm 5 m/s 752 mmHg 23%
    14:00 +40°C° 0 mm 5 m/s 751 mmHg 20%
    15:00 +41°C° 0 mm 6 m/s 751 mmHg 16%
    16:00 +40°C° 0 mm 5 m/s 751 mmHg 17%
    17:00 +39°C° 0 mm 5 m/s 752 mmHg 18%
    18:00 +39°C° 0 mm 5 m/s 752 mmHg 19%
    19:00 +35°C° 0 mm 6 m/s 753 mmHg 24%
    20:00 +33°C° 0 mm 6 m/s 753 mmHg 30%
    21:00 +30°C° 0 mm 7 m/s 754 mmHg 35%
    22:00 +29°C° 0 mm 6 m/s 754 mmHg 38%
    23:00 +28°C° 0 mm 4 m/s 754 mmHg 41%

    4 Iunie, Joi

    Timp Temperatura Precipitaţii Vânt Presiune Umiditate
    00:00 +27°C° 0 mm 3 m/s 754 mmHg 44%
    01:00 +26°C° 0 mm 5 m/s 754 mmHg 47%
    02:00 +24°C° 0 mm 6 m/s 754 mmHg 51%
    03:00 +24°C° 0 mm 7 m/s 755 mmHg 54%
    04:00 +24°C° 0 mm 8 m/s 755 mmHg 53%
    05:00 +24°C° 0 mm 8 m/s 755 mmHg 52%
    06:00 +24°C° 0 mm 8 m/s 756 mmHg 50%
    07:00 +27°C° 0 mm 8 m/s 756 mmHg 46%
    08:00 +29°C° 0 mm 8 m/s 756 mmHg 41%
    09:00 +32°C° 0 mm 7 m/s 756 mmHg 36%
    10:00 +33°C° 0 mm 6 m/s 756 mmHg 33%
    11:00 +35°C° 0 mm 5 m/s 756 mmHg 29%
    12:00 +37°C° 0 mm 4 m/s 756 mmHg 26%
    13:00 +37°C° 0 mm 3 m/s 756 mmHg 24%
    14:00 +38°C° 0 mm 3 m/s 756 mmHg 23%
    15:00 +39°C° 0 mm 3 m/s 756 mmHg 21%
    16:00 +37°C° 0 mm 5 m/s 756 mmHg 28%
    17:00 +35°C° 0 mm 8 m/s 756 mmHg 35%
    18:00 +32°C° 0 mm 10 m/s 757 mmHg 42%
    19:00 +31°C° 0 mm 9 m/s 757 mmHg 47%
    20:00 +28°C° 0 mm 8 m/s 758 mmHg 53%
    21:00 +26°C° 0 mm 7 m/s 758 mmHg 58%
    22:00 +24°C° 0 mm 6 m/s 758 mmHg 61%
    23:00 +23°C° 0 mm 6 m/s 759 mmHg 63%

    5 Iunie, Vineri

    Timp Temperatura Precipitaţii Vânt Presiune Umiditate
    00:00 +22°C° 0 mm 5 m/s 759 mmHg 66%
    01:00 +22°C° 0 mm 4 m/s 759 mmHg 68%
    02:00 +21°C° 0 mm 3 m/s 759 mmHg 71%
    03:00 +21°C° 0 mm 2 m/s 759 mmHg 73%
    04:00 +21°C° 0 mm 2 m/s 759 mmHg 70%
    05:00 +23°C° 0 mm 1 m/s 760 mmHg 67%
    06:00 +24°C° 0 mm 1 m/s 760 mmHg 64%
    07:00 +25°C° 0 mm 2 m/s 760 mmHg 58%
    08:00 +27°C° 0 mm 3 m/s 760 mmHg 53%
    09:00 +28°C° 0 mm 4 m/s 760 mmHg 47%
    10:00 +30°C° 0 mm 4 m/s 759 mmHg 44%
    11:00 +32°C° 0 mm 4 m/s 759 mmHg 40%
    12:00 +33°C° 0 mm 4 m/s 759 mmHg 36%
    13:00 +34°C° 0 mm 4 m/s 759 mmHg 34%
    14:00 +35°C° 0 mm 4 m/s 758 mmHg 32%
    15:00 +36°C° 0 mm 4 m/s 758 mmHg 29%
    16:00 +35°C° 0 mm 4 m/s 758 mmHg 30%
    17:00 +35°C° 0 mm 3 m/s 758 mmHg 30%
    18:00 +35°C° 0 mm 3 m/s 759 mmHg 30%
    19:00 +33°C° 0.1 mm 4 m/s 760 mmHg 36%
    20:00 +29°C° 0.1 mm 5 m/s 760 mmHg 42%
    21:00 +27°C° 0.1 mm 6 m/s 761 mmHg 48%
    22:00 +26°C° 0 mm 5 m/s 761 mmHg 51%
    23:00 +25°C° 0 mm 4 m/s 762 mmHg 53%
    Arată mai mult